SCP
0 0 0 0 0 0 0 0 0 0 0 0 0 0 0 0 0 0 0 0 0 0 0 0 1 1 1 1 1 1 1 1 1 1 0 0 0 1 1 1 1 1 1
1 0 0 0 0 0 0 0 0 0 0 0 0 0 0 0 0 0 0 0 0 0 0 0 1 1 1 1 1 1 1 0 0 0 0 0 0 1 1 1 1 1 1
1 0 0 0 0 0 0 0 0 0 0 0 0 0 0 0 0 0 0 0 0 0 0 0 0 1 1 1 1 0 0 0 0 0 0 0 0 1 1 1 1 1 1
1 0 0 0 0 0 0 0 0 0 0 0 0 0 0 0 0 0 0 0 0 0 0 0 0 0 0 1 0 0 0 0 0 0 0 0 1 1 1 1 1 1 0
1 1 1 0 0 0 0 0 0 0 0 0 0 0 0 0 0 0 0 0 0 0 0 0 0 0 0 0 0 0 0 0 0 0 0 0 1 1 1 1 1 0 0
1 1 1 1 1 0 0 0 0 0 0 0 0 0 0 0 0 0 0 0 0 0 0 0 0 0 0 0 0 0 0 0 0 0 0 0 1 1 1 1 1 1 0
1 1 1 1 1 1 0 0 0 0 0 0 0 0 0 0 0 0 0 0 0 0 0 0 0 0 0 0 0 0 0 0 0 0 0 0 0 1 1 1 1 1 1
1 1 1 1 1 1 1 1 1 0 0 0 0 0 0 0 0 0 0 0 0 0 0 0 0 0 0 0 0 0 0 0 0 0 0 0 0 0 0 0 0 0 0
1 1 1 1 1 1 1 1 1 1 1 1 1 1 1 0 0 1 0 0 0 0 0 0 0 0 0 0 0 0 0 0 0 0 0 0 0 0 0 0 0 0 0
1 1 1 1 1 1 1 2 1 1 1 1 1 1 1 1 1 1 1 1 0 0 0 1 1 0 0 0 0 0 0 0 0 0 0 0 0 0 0 0 0 0 0
1 1 1 1 1 1 1 1 1 1 1 1 1 1 1 1 1 1 1 1 1 1 1 1 1 0 0 0 0 0 0 0 0 0 0 0 0 0 0 0 0 0 0
1 1 1 1 1 1 1 1 2 1 1 1 1 1 1 1 1 1 1 1 1 1 1 1 0 0 0 0 0 0 0 0 0 0 1 0 0 0 0 0 0 0 0
1 1 1 1 1 1 1 1 2 2 2 1 1 1 1 1 1 1 1 1 1 1 1 1 0 0 0 0 0 0 0 0 0 1 1 1 0 0 0 0 0 0 0
1 1 1 2 2 2 1 1 2 2 2 2 2 2 2 1 1 1 1 1 1 1 1 1 0 0 0 0 0 0 0 0 0 1 1 1 1 0 0 0 0 0 0
1 1 1 2 2 2 2 2 2 2 2 2 2 2 2 2 1 1 1 1 1 1 1 1 0 0 0 0 0 0 0 0 0 1 1 1 1 0 0 0 0 0 0
1 1 1 1 1 1 2 2 2 2 2 2 2 2 2 2 2 1 1 1 1 1 1 1 0 0 0 0 0 0 0 0 0 1 1 1 1 1 0 0 0 0 0
0 1 1 1 1 1 1 2 2 2 2 2 2 2 2 2 2 2 1 1 1 1 1 1 0 0 0 0 0 0 0 0 0 0 1 1 1 1 0 0 0 0 0
0 0 1 1 1 1 1 1 2 2 2 2 2 2 2 2 3 2 2 1 1 1 1 1 0 0 0 0 0 0 0 0 0 0 0 1 1 0 0 1 1 0 0
0 0 0 1 1 1 1 1 2 2 2 2 3 3 2 3 3 3 2 2 1 1 1 1 1 1 1 1 0 0 0 0 0 0 0 0 0 0 0 0 1 0 0
0 0 0 0 1 1 1 1 2 2 2 2 3 3 2 3 3 3 3 2 2 2 1 1 1 1 1 1 1 1 1 0 0 0 0 0 0 0 0 0 0 0 0
1 1 1 0 0 1 1 1 1 2 2 2 2 2 2 3 4 4 3 2 2 2 2 2 1 1 1 1 1 1 1 0 0 0 0 0 0 0 1 0 0 0 0
1 1 1 1 1 1 1 1 1 1 2 2 2 2 2 3 4 4 3 3 3 3 3 2 1 1 1 1 1 1 0 0 0 0 0 0 0 0 0 0 0 0 0
1 1 1 1 1 1 1 1 1 1 1 2 2 2 3 3 3 3 3 3 2 3 3 2 2 1 1 1 1 1 0 0 0 0 0 0 0 0 0 0 0 0 1
1 1 1 1 1 1 1 1 1 2 2 2 2 2 3 3 3 3 3 3 2 2 2 2 2 1 1 1 1 1 0 0 0 0 0 0 0 0 0 0 0 0 0
1 1 1 1 0 0 1 1 1 2 2 2 2 2 3 3 3 3 2 2 2 2 2 2 2 2 1 1 1 1 1 1 1 0 0 0 0 0 0 0 0 0 1
0 0 0 0 0 0 0 1 1 2 2 2 2 2 3 3 3 3 2 2 2 2 2 2 2 2 1 1 1 1 1 1 1 0 0 0 0 0 0 0 0 1 1
Wind_Speed
12 13 12 11 11 10 9 9 8 8 7 7 6 5 5 4 4 4 4 4 4 4 4 4 4 5 5 6 6 6 6 6 5 5 5 5 6 6 6 6 5 6 8
15 14 12 12 11 10 9 9 8 8 7 7 6 5 5 4 4 3 3 3 4 4 4 4 4 4 4 4 4 4 5 4 4 3 2 3 6 6 7 7 8 5 7
16 14 12 12 11 10 9 8 8 7 7 6 6 5 5 4 4 3 3 3 3 3 3 3 3 3 4 4 4 4 4 4 4 4 3 0 4 6 7 7 7 7 7
16 13 12 12 11 10 9 8 7 7 6 6 6 5 4 4 3 3 3 2 3 3 3 3 3 3 3 3 3 3 3 4 6 7 2 2 4 7 6 6 6 6 6
13 12 13 12 10 9 8 7 7 6 6 6 5 5 4 4 3 3 2 2 2 2 2 2 2 2 2 2 2 2 3 5 7 6 2 5 5 6 7 7 7 6 6
13 13 12 11 10 9 8 7 6 6 5 5 5 4 4 4 3 2 2 2 1 2 2 2 2 1 2 2 1 1 3 6 7 3 2 5 4 6 7 7 7 7 7
12 13 12 11 10 9 8 7 6 6 6 6 5 5 5 4 3 3 2 2 2 1 2 2 1 1 1 1 0 2 4 7 6 2 3 5 5 7 7 7 7 7 7
11 12 12 12 11 10 9 8 7 7 7 7 6 6 5 5 4 4 3 3 2 2 1 1 1 1 1 1 1 3 5 7 5 2 5 6 7 7 7 6 6 6 7
7 9 10 11 11 11 11 10 9 9 8 8 8 7 7 6 6 6 5 5 4 3 2 2 2 2 2 2 3 4 5 7 6 3 6 5 7 7 7 6 6 6 6
4 4 5 7 8 9 9 12 12 11 10 9 9 9 9 8 8 8 8 7 6 5 4 4 3 3 4 4 5 6 7 7 6 0 5 6 8 7 6 6 5 6 6
7 5 4 1 2 3 6 10 11 11 11 10 9 11 9 6 8 8 10 10 9 8 7 6 6 6 6 7 8 8 7 4 4 4 4 8 8 7 6 6 5 5 5
8 7 6 5 3 1 2 4 6 7 7 7 6 8 7 7 5 7 10 13 12 10 8 8 8 8 7 5 8 9 4 6 3 5 5 9 8 7 6 6 5 5 5
7 7 7 6 4 3 2 1 1 2 4 6 7 7 6 5 4 4 4 7 7 9 6 7 7 6 7 6 5 6 6 4 2 4 6 9 8 7 6 5 6 5 5
6 6 7 7 5 4 3 2 2 1 2 2 4 6 5 3 3 3 4 6 6 5 6 6 6 9 9 9 8 8 6 3 4 5 6 10 8 7 6 6 6 6 6
6 6 6 6 5 4 3 2 3 2 2 3 2 3 4 4 3 3 3 4 5 5 6 4 6 6 6 4 4 4 4 3 6 6 5 9 9 7 7 6 6 6 6
6 6 6 6 6 5 4 3 2 3 3 3 3 4 4 3 4 3 3 3 3 3 4 5 5 4 2 2 1 1 3 3 4 8 7 7 9 8 7 7 7 7 6
7 6 6 6 5 5 5 5 4 3 3 3 3 4 4 3 4 4 3 3 2 2 3 3 4 3 2 2 2 1 1 2 3 7 8 6 6 8 8 8 7 7 7
8 7 6 7 6 5 5 4 4 4 3 3 3 3 4 4 4 3 3 2 2 2 1 2 1 1 1 1 2 2 2 2 2 4 7 7 7 6 7 9 8 7 7
9 8 8 7 6 6 6 5 4 4 3 3 3 4 4 5 4 3 3 3 3 1 1 1 1 1 1 1 2 1 2 3 3 4 5 6 8 8 6 8 9 8 8
10 10 8 7 7 6 5 4 4 4 3 3 3 4 5 4 5 4 4 5 4 2 2 1 1 1 1 0 2 1 1 2 2 2 2 3 6 9 9 8 6 6 8
11 11 9 8 7 6 4 4 4 4 4 3 3 5 5 5 6 5 4 5 4 4 4 3 2 1 0 0 0 1 1 2 3 3 2 2 3 6 10 10 7 6 5
11 10 10 9 8 7 5 4 4 4 4 4 3 3 4 5 5 6 5 5 5 4 4 4 3 2 1 1 1 1 1 2 2 2 2 2 2 3 5 9 8 9 7
11 11 10 10 10 8 7 5 5 4 4 4 4 3 3 5 5 5 5 5 5 5 5 5 5 5 3 2 2 2 2 3 1 2 3 3 2 2 3 3 6 8 10
11 11 11 10 10 10 8 6 7 5 4 5 4 3 3 4 4 4 5 5 6 5 5 6 6 5 5 3 2 2 2 2 2 1 2 1 2 2 2 1 2 3 6
11 10 10 10 10 10 9 7 6 5 5 4 4 3 3 3 3 4 5 5 6 5 6 6 6 6 5 4 3 2 1 1 1 2 2 2 1 0 0 0 0 1 3
10 9 9 9 9 9 9 8 7 7 6 5 5 3 3 2 2 2 3 4 5 5 5 6 6 7 6 6 4 3 3 2 2 2 2 1 1 1 1 0 1 1 2
Wind_Direction
122 121 128 120 115 110 108 111 115 120 123 124 124 123 119 111 102 90 78 67 62 55 45 43 43 46 51 46 41 39 39 39 37 42 56 63 67 59 50 40 50 85 93
121 123 129 124 120 117 113 113 115 117 120 122 124 124 121 117 116 107 88 70 61 53 48 47 48 50 52 48 42 38 38 31 15 10 47 83 79 66 55 51 66 88 89
118 126 131 128 126 123 121 119 120 120 121 123 125 127 126 121 118 118 110 86 68 59 57 56 53 56 55 50 42 34 25 4 334 322 311 103 94 72 66 64 74 84 87
123 137 132 133 132 131 129 128 128 129 128 127 128 128 131 129 127 126 116 98 81 65 61 61 55 55 56 50 43 29 6 330 315 317 342 79 79 73 69 70 75 82 85
124 125 125 139 138 138 139 139 140 140 138 138 138 136 138 138 133 132 132 118 96 75 65 66 65 59 57 52 39 12 332 309 311 315 60 89 80 78 73 71 75 84 89
118 119 132 142 144 146 149 152 154 155 154 155 158 160 159 157 154 148 151 145 126 105 87 78 76 70 69 59 34 349 308 304 306 313 76 98 93 82 79 78 81 84 90
127 128 140 147 152 158 162 165 167 170 173 175 175 178 177 175 174 175 175 165 151 135 111 99 100 102 93 63 324 298 295 301 282 271 104 100 98 93 86 83 81 82 86
128 135 140 156 163 170 176 180 182 185 189 190 189 190 190 192 191 190 190 183 173 162 148 140 149 158 163 215 254 276 290 297 297 293 112 104 108 100 92 87 85 84 87
108 130 150 163 173 180 186 189 192 197 200 199 197 199 200 202 204 203 201 194 189 178 177 181 190 201 216 226 238 260 275 284 291 283 112 110 112 104 97 93 92 92 94
67 102 146 166 175 183 189 195 197 200 204 206 206 206 206 208 212 213 208 201 199 194 194 198 208 216 226 229 233 244 261 283 270 351 102 114 111 107 106 103 103 101 98
25 19 33 75 147 182 189 192 195 202 207 208 209 213 212 216 211 207 215 193 195 198 201 206 215 222 229 229 232 237 250 250 248 110 104 118 118 114 114 115 112 110 107
12 5 13 5 353 313 216 178 195 195 195 205 209 202 208 223 219 203 190 184 191 199 204 211 219 228 233 228 222 227 238 235 225 123 120 124 122 123 124 126 125 121 117
9 2 358 352 351 358 331 271 224 203 187 204 211 204 210 223 206 180 166 177 192 202 208 208 214 226 226 222 198 202 221 228 145 115 131 131 127 129 132 135 137 133 125
10 359 350 348 345 347 346 322 289 279 230 221 216 212 200 212 225 203 181 180 187 196 206 193 209 218 225 220 200 204 196 186 133 122 141 140 137 139 143 140 137 140 137
0 349 345 342 340 336 331 307 302 276 257 249 230 239 208 191 209 227 209 188 193 191 191 205 219 228 222 224 212 192 166 187 141 134 139 149 146 147 151 151 144 142 141
353 344 340 339 337 325 311 293 278 274 260 260 248 234 232 199 196 216 225 208 212 204 183 194 220 239 232 223 248 172 147 173 138 140 145 152 153 153 157 158 154 151 148
346 340 338 325 326 323 319 313 301 273 260 249 245 253 250 224 205 209 211 207 212 223 214 208 225 220 209 198 206 238 180 158 153 147 149 157 160 164 164 162 160 158 157
341 335 333 327 328 317 306 295 288 284 276 256 242 245 256 256 221 201 206 211 214 218 233 212 216 226 219 212 213 198 194 160 196 162 159 166 162 165 169 169 166 166 165
338 336 337 336 326 317 305 289 275 270 265 258 244 232 232 238 233 196 203 208 207 185 204 240 181 195 225 241 249 210 188 160 196 193 183 176 161 157 161 172 168 166 169
346 344 339 334 329 323 313 309 302 290 275 257 243 236 232 222 221 207 204 204 196 178 187 213 188 182 202 199 264 252 189 172 193 206 208 171 162 162 157 164 167 176 177
349 344 338 334 332 327 323 317 311 304 297 282 261 245 235 230 219 209 206 201 196 193 186 189 183 169 199 251 275 337 314 230 196 183 208 189 179 161 157 167 177 173 176
349 343 337 339 333 328 322 311 291 290 284 279 271 258 243 238 230 218 205 195 193 193 190 189 174 162 190 191 157 143 306 314 300 187 189 208 199 162 176 177 175 170 169
350 346 342 340 336 334 334 321 312 303 291 287 283 273 252 237 230 221 204 192 195 191 190 191 184 175 188 198 168 153 169 218 270 291 207 199 210 185 201 183 177 173 167
351 348 344 344 343 342 337 326 319 307 299 291 288 275 271 253 236 226 211 201 195 195 191 193 185 176 169 195 203 186 190 161 159 262 280 214 209 196 194 195 195 173 158
354 352 350 349 349 346 339 332 324 316 303 295 293 290 282 260 237 223 213 203 198 196 196 193 184 179 177 185 188 181 205 207 206 182 251 293 318 306 135 125 116 108 129
356 353 353 353 352 347 344 343 339 329 320 318 314 312 305 286 260 237 217 199 198 192 195 195 188 185 187 188 182 182 179 175 186 182 201 222 255 288 292 142 108 102 102